Time,TemperatureF,DewpointF,PressureIn,WindDirection,WindDirectionDegrees,WindSpeedMPH,WindSpeedGustMPH,Humidity,HourlyPrecipIn,Conditions,Clouds,dailyrainin,SoftwareType,DateUTC
2013-01-11 00:00:00,63.0,-99.9,-100.00,SE,135,5.0,-999.0,-999,-99.99,,,0.00,,2013-01-11 05:00:00,
2013-01-11 00:13:00,58.0,-99.9,-100.00,ESE,109,1.0,-999.0,-999,-99.99,,,0.00,,2013-01-11 05:13:00,
2013-01-11 00:23:00,58.0,-99.9,-100.00,ESE,109,1.0,-999.0,-999,-99.99,,,0.00,,2013-01-11 05:23:00,
2013-01-11 00:30:00,64.0,-99.9,-100.00,SSE,164,6.0,-999.0,-999,-99.99,,,0.00,,2013-01-11 05:30:00,
2013-01-11 00:33:00,63.0,-99.9,-100.00,SE,135,5.0,-999.0,-999,-99.99,,,0.00,,2013-01-11 05:33:00,
2013-01-11 00:43:00,63.0,-99.9,-100.00,SE,135,5.0,-999.0,-999,-99.99,,,0.00,,2013-01-11 05:43:00,
2013-01-11 00:53:00,63.0,-99.9,-100.00,SE,135,5.0,-999.0,-999,-99.99,,,0.00,,2013-01-11 05:53:00,
2013-01-11 01:12:00,64.0,-99.9,-100.00,SSE,164,6.0,-999.0,-999,-99.99,,,0.00,,2013-01-11 06:12:00,
2013-01-11 01:22:00,64.0,-99.9,-100.00,SSE,164,6.0,-999.0,-999,-99.99,,,0.00,,2013-01-11 06:22:00,
2013-01-11 01:30:00,64.0,-99.9,-100.00,SSE,165,6.0,-999.0,-999,-99.99,,,0.00,,2013-01-11 06:30:00,
2013-01-11 02:00:00,65.0,-99.9,-100.00,SSE,158,9.0,-999.0,-999,-99.99,,,0.00,,2013-01-11 07:00:00,
2013-01-11 02:12:00,64.0,-99.9,-100.00,SSE,165,6.0,-999.0,-999,-99.99,,,0.00,,2013-01-11 07:12:00,
2013-01-11 02:22:00,64.0,-99.9,-100.00,SSE,165,6.0,-999.0,-999,-99.99,,,0.00,,2013-01-11 07:22:00,
2013-01-11 02:30:00,65.0,-99.9,-100.00,SSE,166,8.0,-999.0,-999,-99.99,,,0.00,,2013-01-11 07:30:00,
2013-01-11 02:43:00,65.0,-99.9,-100.00,SSE,158,9.0,-999.0,-999,-99.99,,,0.00,,2013-01-11 07:43:00,
2013-01-11 02:53:00,65.0,-99.9,-100.00,SSE,158,9.0,-999.0,-999,-99.99,,,0.00,,2013-01-11 07:53:00,
2013-01-11 03:00:00,63.0,-99.9,-100.00,WSW,256,4.0,-999.0,-999,-99.99,,,0.00,,2013-01-11 08:00:00,
2013-01-11 03:12:00,65.0,-99.9,-100.00,SSE,166,8.0,-999.0,-999,-99.99,,,0.00,,2013-01-11 08:12:00,
2013-01-11 03:22:00,65.0,-99.9,-100.00,SSE,166,8.0,-999.0,-999,-99.99,,,0.00,,2013-01-11 08:22:00,
2013-01-11 03:30:00,61.0,-99.9,-100.00,SW,227,3.0,-999.0,-999,-99.99,,,0.00,,2013-01-11 08:30:00,
2013-01-11 03:43:00,63.0,-99.9,-100.00,WSW,256,4.0,-999.0,-999,-99.99,,,0.00,,2013-01-11 08:43:00,
2013-01-11 03:53:00,63.0,-99.9,-100.00,WSW,256,4.0,-999.0,-999,-99.99,,,0.00,,2013-01-11 08:53:00,
2013-01-11 04:00:00,61.0,-99.9,-100.00,SSW,198,3.0,-999.0,-999,-99.99,,,0.00,,2013-01-11 09:00:00,
2013-01-11 04:12:00,61.0,-99.9,-100.00,SW,227,3.0,-999.0,-999,-99.99,,,0.00,,2013-01-11 09:12:00,
2013-01-11 04:23:00,61.0,-99.9,-100.00,SW,227,3.0,-999.0,-999,-99.99,,,0.00,,2013-01-11 09:23:00,
2013-01-11 04:30:00,63.0,-99.9,-100.00,South,189,6.0,-999.0,-999,-99.99,,,0.00,,2013-01-11 09:30:00,
2013-01-11 04:43:00,61.0,-99.9,-100.00,SSW,198,3.0,-999.0,-999,-99.99,,,0.00,,2013-01-11 09:43:00,
2013-01-11 04:53:00,61.0,-99.9,-100.00,SSW,198,3.0,-999.0,-999,-99.99,,,0.00,,2013-01-11 09:53:00,
2013-01-11 05:00:00,64.0,-99.9,-100.00,South,184,11.0,-999.0,-999,-99.99,,,0.00,,2013-01-11 10:00:00,
2013-01-11 05:12:00,63.0,-99.9,-100.00,South,189,6.0,-999.0,-999,-99.99,,,0.00,,2013-01-11 10:12:00,
2013-01-11 05:22:00,63.0,-99.9,-100.00,South,189,6.0,-999.0,-999,-99.99,,,0.00,,2013-01-11 10:22:00,
2013-01-11 05:30:00,64.0,-99.9,-100.00,South,184,12.0,-999.0,-999,-99.99,,,0.00,,2013-01-11 10:30:00,
2013-01-11 05:43:00,64.0,-99.9,-100.00,South,184,11.0,-999.0,-999,-99.99,,,0.00,,2013-01-11 10:43:00,
2013-01-11 05:53:00,64.0,-99.9,-100.00,South,184,11.0,-999.0,-999,-99.99,,,0.00,,2013-01-11 10:53:00,
2013-01-11 06:00:00,65.0,-99.9,-100.00,South,187,11.0,-999.0,-999,-99.99,,,0.00,,2013-01-11 11:00:00,
2013-01-11 06:12:00,64.0,-99.9,-100.00,South,180,11.0,-999.0,-999,-99.99,,,0.00,,2013-01-11 11:12:00,
2013-01-11 06:23:00,64.0,-99.9,-100.00,South,184,12.0,-999.0,-999,-99.99,,,0.00,,2013-01-11 11:23:00,
2013-01-11 06:30:00,64.0,-99.9,-100.00,South,187,10.0,-999.0,-999,-99.99,,,0.00,,2013-01-11 11:30:00,
2013-01-11 06:43:00,65.0,-99.9,-100.00,South,187,11.0,-999.0,-999,-99.99,,,0.00,,2013-01-11 11:43:00,
2013-01-11 06:53:00,65.0,-99.9,-100.00,South,187,11.0,-999.0,-999,-99.99,,,0.00,,2013-01-11 11:53:00,
2013-01-11 07:00:00,63.0,-99.9,-100.00,SSW,194,7.0,-999.0,-999,-99.99,,,0.00,,2013-01-11 12:00:00,
2013-01-11 07:13:00,64.0,-99.9,-100.00,South,187,10.0,-999.0,-999,-99.99,,,0.00,,2013-01-11 12:13:00,
2013-01-11 07:23:00,64.0,-99.9,-100.00,South,187,10.0,-999.0,-999,-99.99,,,0.00,,2013-01-11 12:23:00,
2013-01-11 07:30:00,63.0,-99.9,-100.00,SSW,204,6.0,-999.0,-999,-99.99,,,0.00,,2013-01-11 12:30:00,
2013-01-11 07:43:00,63.0,-99.9,-100.00,SSW,194,7.0,-999.0,-999,-99.99,,,0.00,,2013-01-11 12:43:00,
2013-01-11 07:53:00,63.0,-99.9,-100.00,SSW,194,7.0,-999.0,-999,-99.99,,,0.00,,2013-01-11 12:53:00,
2013-01-11 08:00:00,63.0,-99.9,-100.00,SW,216,5.0,-999.0,-999,-99.99,,,0.00,,2013-01-11 13:00:00,
2013-01-11 08:13:00,63.0,-99.9,-100.00,SSW,204,6.0,-999.0,-999,-99.99,,,0.00,,2013-01-11 13:13:00,
2013-01-11 08:23:00,63.0,-99.9,-100.00,SSW,204,6.0,-999.0,-999,-99.99,,,0.00,,2013-01-11 13:23:00,
2013-01-11 08:30:00,62.0,-99.9,-100.00,SSW,203,4.0,-999.0,-999,-99.99,,,-99.99,,2013-01-11 13:30:00,
2013-01-11 08:43:00,63.0,-99.9,-100.00,SW,216,5.0,-999.0,-999,-99.99,,,0.00,,2013-01-11 13:43:00,
2013-01-11 08:53:00,63.0,-99.9,-100.00,SW,216,5.0,-999.0,-999,-99.99,,,0.00,,2013-01-11 13:53:00,
2013-01-11 09:00:00,62.0,-99.9,-100.00,SW,218,4.0,-999.0,-999,-99.99,,,0.00,,2013-01-11 14:00:00,
2013-01-11 09:12:00,62.0,-99.9,-100.00,SSW,203,4.0,-999.0,-999,-99.99,,,-99.99,,2013-01-11 14:12:00,
2013-01-11 09:23:00,62.0,-99.9,-100.00,SSW,203,4.0,-999.0,-999,-99.99,,,-99.99,,2013-01-11 14:23:00,
2013-01-11 09:43:00,62.0,-99.9,-100.00,SW,218,4.0,-999.0,-999,-99.99,,,0.00,,2013-01-11 14:43:00,
2013-01-11 09:53:00,62.0,-99.9,-100.00,SW,218,4.0,-999.0,-999,-99.99,,,0.00,,2013-01-11 14:53:00,
2013-01-11 10:00:00,63.0,-99.9,-100.00,SSW,210,5.0,-999.0,-999,-99.99,,,0.00,,2013-01-11 15:00:00,
2013-01-11 10:13:00,63.0,-99.9,-100.00,SSW,203,7.0,-999.0,-999,-99.99,,,-99.99,,2013-01-11 15:13:00,
2013-01-11 10:23:00,63.0,-99.9,-100.00,SSW,211,6.0,-999.0,-999,-99.99,,,0.00,,2013-01-11 15:23:00,
2013-01-11 10:33:00,63.0,-99.9,-100.00,SSW,211,6.0,-999.0,-999,-99.99,,,0.00,,2013-01-11 15:33:00,
2013-01-11 10:43:00,63.0,-99.9,-100.00,SSW,210,5.0,-999.0,-999,-99.99,,,0.00,,2013-01-11 15:43:00,
2013-01-11 10:53:00,63.0,-99.9,-100.00,SSW,210,5.0,-999.0,-999,-99.99,,,0.00,,2013-01-11 15:53:00,
2013-01-11 11:13:00,63.0,-99.9,-100.00,SSW,209,6.0,-999.0,-999,-99.99,,,-99.99,,2013-01-11 16:13:00,
2013-01-11 11:23:00,63.0,-99.9,-100.00,SSW,205,6.0,-999.0,-999,-99.99,,,0.00,,2013-01-11 16:23:00,
2013-01-11 11:33:00,63.0,-99.9,-100.00,SSW,205,6.0,-999.0,-999,-99.99,,,0.00,,2013-01-11 16:33:00,
2013-01-11 11:43:00,63.0,-99.9,-100.00,SSW,203,6.0,-999.0,-999,-99.99,,,0.00,,2013-01-11 16:43:00,
2013-01-11 11:53:00,64.0,-99.9,-100.00,SSW,198,7.0,-999.0,-999,-99.99,,,0.00,,2013-01-11 16:53:00,
2013-01-11 12:03:00,64.0,-99.9,-100.00,SSW,198,7.0,-999.0,-999,-99.99,,,0.00,,2013-01-11 17:03:00,
2013-01-11 12:12:00,64.0,-99.9,-100.00,SSW,196,7.0,-999.0,-999,-99.99,,,0.00,,2013-01-11 17:12:00,
2013-01-11 12:23:00,64.0,-99.9,-100.00,SSW,197,5.0,-999.0,-999,-99.99,,,0.00,,2013-01-11 17:23:00,
2013-01-11 12:33:00,64.0,-99.9,-100.00,SSW,197,5.0,-999.0,-999,-99.99,,,0.00,,2013-01-11 17:33:00,
2013-01-11 12:43:00,64.0,-99.9,-100.00,SSW,194,6.0,-999.0,-999,-99.99,,,0.00,,2013-01-11 17:43:00,
2013-01-11 12:53:00,64.0,-99.9,-100.00,SSW,198,6.0,-999.0,-999,-99.99,,,0.00,,2013-01-11 17:53:00,
2013-01-11 13:04:00,64.0,-99.9,-100.00,SSW,198,6.0,-999.0,-999,-99.99,,,0.00,,2013-01-11 18:04:00,
2013-01-11 13:13:00,65.0,-99.9,-100.00,SSW,198,6.0,-999.0,-999,-99.99,,,0.00,,2013-01-11 18:13:00,
2013-01-11 13:24:00,65.0,-99.9,-100.00,SSW,206,6.0,-999.0,-999,-99.99,,,0.00,,2013-01-11 18:24:00,
2013-01-11 13:30:00,65.0,-99.9,-100.00,SSW,198,6.0,-999.0,-999,-99.99,,,0.00,,2013-01-11 18:30:00,
2013-01-11 13:33:00,65.0,-99.9,-100.00,SSW,206,6.0,-999.0,-999,-99.99,,,0.00,,2013-01-11 18:33:00,
2013-01-11 13:43:00,65.0,-99.9,-100.00,SSW,206,6.0,-999.0,-999,-99.99,,,0.00,,2013-01-11 18:43:00,
2013-01-11 13:53:00,65.0,-99.9,-100.00,SSW,200,5.0,-999.0,-999,-99.99,,,0.00,,2013-01-11 18:53:00,
2013-01-11 14:03:00,65.0,-99.9,-100.00,SSW,200,5.0,-999.0,-999,-99.99,,,0.00,,2013-01-11 19:03:00,
2013-01-11 14:13:00,65.0,-99.9,-100.00,SSW,198,6.0,-999.0,-999,-99.99,,,0.00,,2013-01-11 19:13:00,
2013-01-11 14:23:00,65.0,-99.9,-100.00,SSW,198,6.0,-999.0,-999,-99.99,,,0.00,,2013-01-11 19:23:00,
2013-01-11 14:30:00,67.0,-99.9,-100.00,SSW,196,6.0,-999.0,-999,-99.99,,,0.00,,2013-01-11 19:30:00,
2013-01-11 14:43:00,66.0,-99.9,-100.00,SSW,204,6.0,-999.0,-999,-99.99,,,0.00,,2013-01-11 19:43:00,
2013-01-11 14:54:00,66.0,-99.9,-100.00,SSW,204,5.0,-999.0,-999,-99.99,,,0.00,,2013-01-11 19:54:00,
2013-01-11 15:03:00,66.0,-99.9,-100.00,SSW,204,5.0,-999.0,-999,-99.99,,,0.00,,2013-01-11 20:03:00,
2013-01-11 15:13:00,67.0,-99.9,-100.00,SSW,196,6.0,-999.0,-999,-99.99,,,0.00,,2013-01-11 20:13:00,
2013-01-11 15:23:00,67.0,-99.9,-100.00,SSW,196,6.0,-999.0,-999,-99.99,,,0.00,,2013-01-11 20:23:00,
2013-01-11 15:43:00,67.0,-99.9,-100.00,SSW,202,6.0,-999.0,-999,-99.99,,,0.00,,2013-01-11 20:43:00,
2013-01-11 15:53:00,68.0,-99.9,-100.00,South,184,7.0,-999.0,-999,-99.99,,,0.00,,2013-01-11 20:53:00,
2013-01-11 16:03:00,68.0,-99.9,-100.00,South,184,7.0,-999.0,-999,-99.99,,,0.00,,2013-01-11 21:03:00,
2013-01-11 16:13:00,67.0,-99.9,-100.00,South,183,7.0,-999.0,-999,-99.99,,,0.00,,2013-01-11 21:13:00,
2013-01-11 16:23:00,67.0,-99.9,-100.00,South,184,8.0,-999.0,-999,-99.99,,,0.00,,2013-01-11 21:23:00,
2013-01-11 16:30:00,67.0,-99.9,-100.00,South,191,7.0,-999.0,-999,-99.99,,,0.00,,2013-01-11 21:30:00,
2013-01-11 16:33:00,67.0,-99.9,-100.00,South,184,8.0,-999.0,-999,-99.99,,,0.00,,2013-01-11 21:33:00,
2013-01-11 16:43:00,67.0,-99.9,-100.00,SSW,194,6.0,-999.0,-999,-99.99,,,0.00,,2013-01-11 21:43:00,
2013-01-11 16:53:00,67.0,-99.9,-100.00,SSW,192,7.0,-999.0,-999,-99.99,,,0.00,,2013-01-11 21:53:00,
2013-01-11 17:03:00,67.0,-99.9,-100.00,SSW,192,7.0,-999.0,-999,-99.99,,,0.00,,2013-01-11 22:03:00,
2013-01-11 17:13:00,67.0,-99.9,-100.00,South,191,7.0,-999.0,-999,-99.99,,,0.00,,2013-01-11 22:13:00,
2013-01-11 17:23:00,67.0,-99.9,-100.00,South,191,7.0,-999.0,-999,-99.99,,,0.00,,2013-01-11 22:23:00,
2013-01-11 17:43:00,67.0,-99.9,-100.00,SSW,196,6.0,-999.0,-999,-99.99,,,0.00,,2013-01-11 22:43:00,
2013-01-11 17:53:00,66.0,-99.9,-100.00,SSW,206,5.0,-999.0,-999,-99.99,,,0.00,,2013-01-11 22:53:00,
2013-01-11 18:03:00,66.0,-99.9,-100.00,SSW,206,5.0,-999.0,-999,-99.99,,,0.00,,2013-01-11 23:03:00,
2013-01-11 18:13:00,66.0,-99.9,-100.00,SSW,198,6.0,-999.0,-999,-99.99,,,0.00,,2013-01-11 23:13:00,
2013-01-11 18:23:00,66.0,-99.9,-100.00,SSW,196,6.0,-999.0,-999,-99.99,,,0.00,,2013-01-11 23:23:00,
2013-01-11 18:30:00,65.0,-99.9,-100.00,SSW,197,5.0,-999.0,-999,-99.99,,,0.00,,2013-01-11 23:30:00,
2013-01-11 18:33:00,66.0,-99.9,-100.00,SSW,196,6.0,-999.0,-999,-99.99,,,0.00,,2013-01-11 23:33:00,
2013-01-11 18:43:00,66.0,-99.9,-100.00,South,189,5.0,-999.0,-999,-99.99,,,0.00,,2013-01-11 23:43:00,
2013-01-11 18:54:00,65.0,-99.9,-100.00,SSW,200,6.0,-999.0,-999,-99.99,,,0.00,,2013-01-11 23:54:00,
2013-01-11 19:03:00,65.0,-99.9,-100.00,SSW,200,6.0,-999.0,-999,-99.99,,,0.00,,2013-01-12 00:03:00,
2013-01-11 19:13:00,65.0,-99.9,-100.00,SSW,197,5.0,-999.0,-999,-99.99,,,0.00,,2013-01-12 00:13:00,
2013-01-11 19:23:00,65.0,-99.9,-100.00,SSW,197,5.0,-999.0,-999,-99.99,,,0.00,,2013-01-12 00:23:00,
2013-01-11 19:43:00,64.0,-99.9,-100.00,South,180,6.0,-999.0,-999,-99.99,,,0.00,,2013-01-12 00:43:00,
2013-01-11 19:53:00,64.0,-99.9,-100.00,SSW,194,5.0,-999.0,-999,-99.99,,,0.00,,2013-01-12 00:53:00,
2013-01-11 20:03:00,64.0,-99.9,-100.00,SSW,194,5.0,-999.0,-999,-99.99,,,0.00,,2013-01-12 01:03:00,
2013-01-11 20:13:00,64.0,-99.9,-100.00,South,189,5.0,-999.0,-999,-99.99,,,0.00,,2013-01-12 01:13:00,
2013-01-11 20:23:00,64.0,-99.9,-100.00,South,189,5.0,-999.0,-999,-99.99,,,0.00,,2013-01-12 01:23:00,
2013-01-11 20:33:00,64.0,-99.9,-100.00,SSW,194,5.0,-999.0,-999,-99.99,,,0.00,,2013-01-12 01:33:00,
2013-01-11 20:43:00,64.0,-99.9,-100.00,SSW,194,5.0,-999.0,-999,-99.99,,,0.00,,2013-01-12 01:43:00,
2013-01-11 20:53:00,64.0,-99.9,-100.00,SSW,197,5.0,-999.0,-999,-99.99,,,0.00,,2013-01-12 01:53:00,
2013-01-11 21:03:00,64.0,-99.9,-100.00,SSW,197,5.0,-999.0,-999,-99.99,,,0.00,,2013-01-12 02:03:00,
2013-01-11 21:12:00,64.0,-99.9,-100.00,South,190,7.0,-999.0,-999,-99.99,,,0.00,,2013-01-12 02:12:00,
2013-01-11 21:23:00,64.0,-99.9,-100.00,SSW,192,5.0,-999.0,-999,-99.99,,,-99.99,,2013-01-12 02:23:00,
2013-01-11 21:33:00,64.0,-99.9,-100.00,SSW,192,5.0,-999.0,-999,-99.99,,,-99.99,,2013-01-12 02:33:00,
2013-01-11 21:43:00,64.0,-99.9,-100.00,SSW,197,5.0,-999.0,-999,-99.99,,,0.00,,2013-01-12 02:43:00,
2013-01-11 21:53:00,64.0,-99.9,-100.00,SSW,193,5.0,-999.0,-999,-99.99,,,-99.99,,2013-01-12 02:53:00,
2013-01-11 22:03:00,64.0,-99.9,-100.00,SSW,193,5.0,-999.0,-999,-99.99,,,-99.99,,2013-01-12 03:03:00,
2013-01-11 22:12:00,64.0,-99.9,-100.00,SSW,193,5.0,-999.0,-999,-99.99,,,0.00,,2013-01-12 03:12:00,
2013-01-11 22:23:00,64.0,-99.9,-100.00,SSW,193,5.0,-999.0,-999,-99.99,,,-99.99,,2013-01-12 03:23:00,
2013-01-11 22:33:00,64.0,-99.9,-100.00,SSW,193,5.0,-999.0,-999,-99.99,,,-99.99,,2013-01-12 03:33:00,
2013-01-11 22:43:00,64.0,-99.9,-100.00,SSW,192,5.0,-999.0,-999,-99.99,,,0.00,,2013-01-12 03:43:00,
2013-01-11 22:53:00,64.0,-99.9,-100.00,SSW,194,5.0,-999.0,-999,-99.99,,,-99.99,,2013-01-12 03:53:00,
2013-01-11 23:03:00,64.0,-99.9,-100.00,SSW,194,5.0,-999.0,-999,-99.99,,,-99.99,,2013-01-12 04:03:00,
2013-01-11 23:12:00,64.0,-99.9,-100.00,South,187,5.0,-999.0,-999,-99.99,,,0.00,,2013-01-12 04:12:00,
2013-01-11 23:23:00,64.0,-99.9,-100.00,South,187,5.0,-999.0,-999,-99.99,,,0.00,,2013-01-12 04:23:00,
2013-01-11 23:33:00,64.0,-99.9,-100.00,SSW,196,4.0,-999.0,-999,-99.99,,,0.00,,2013-01-12 04:33:00,
2013-01-11 23:43:00,64.0,-99.9,-100.00,SSW,196,4.0,-999.0,-999,-99.99,,,0.00,,2013-01-12 04:43:00,
2013-01-11 23:53:00,63.0,-99.9,-100.00,SSW,204,3.0,-999.0,-999,-99.99,,,-99.99,,2013-01-12 04:53:00,